Weather History for FAGG - December, 2012

Change the Weather History Date:

Monday, December 31, 2012

  Actual Average Record
Temperature  
Mean Temperature 62 °F -  
Max Temperature 68 °F 74 °F 80 °F (2005)
Min Temperature 57 °F 58 °F 51 °F (2008)
Degree Days  
Heating Degree Days 2    
Growing Degree Days 12 (Base 50)    
Moisture  
Dew Point 57 °F    
Average Humidity 81    
Maximum Humidity 94    
Minimum Humidity 60    
Precipitation  
Precipitation 0.01 in - - ()
Sea Level Pressure  
Sea Level Pressure 30.03 in    
Wind  
Wind Speed 6 mph ()    
Max Wind Speed 12 mph    
Max Gust Speed -    
Visibility 5.9 miles    
Events Rain    
Averages and records for this station are not official NWS values.
T = Trace of Precipitation, MM = Missing Value Source: Averaged Metar Reports

Daily Weather History Graph

Daily Weather History Graph

Search for Another Location

Airport or City:

Trip Planner

Search our weather history database for the weather conditions in past years. The results will help you decide how hot, cold, wet, or windy it might be!

Date:

Astronomy

Dec. 31, 2012 Rise Set
Actual Time 5:22 AM SAST 7:45 PM SAST
Civil Twilight 4:53 AM SAST 8:14 PM SAST
Nautical Twilight 4:17 AM SAST 8:49 PM SAST
Astronomical Twilight 3:38 AM SAST 9:28 PM SAST
Moon 9:33 PM SAST (12/31) 8:04 AM SAST (12/31)
Length of Visible Light 15h 21m
Length of Day
14h 22m
Waning Gibbous, 92% of the Moon is Illuminated
Dec 31
Waning Gibbous
Jan 5
Last Quarter
Jan 11
New
Jan 19
First Quarter
Jan 27
Full

Hourly Weather History & Observations

Time (SAST) Temp. Dew Point Humidity Pressure Visibility Wind Dir Wind Speed Gust Speed Precip Events Conditions
12:00 AM 62.6 °F 60.8 °F 94% 30.04 in 3.7 mi NW 5.8 mph - N/A Rain Light Rain
1:00 AM 62.6 °F 59.0 °F 88% 30.01 in 6.2 mi WNW 5.8 mph - N/A   Mostly Cloudy
2:00 AM 61 °F 58 °F 88% 30.01 in 3 mi SSW 9.2 mph - -  
2:00 AM 60.8 °F 59.0 °F 94% 30.01 in 3.1 mi SW 9.2 mph - N/A Rain Light Rain
3:00 AM 60.8 °F 59.0 °F 94% 30.01 in 6.2 mi North 4.6 mph - N/A Rain Light Rain
4:00 AM 60.8 °F 57.2 °F 88% 29.98 in 6.2 mi North 8.1 mph - N/A   Mostly Cloudy
5:00 AM 60.8 °F 57.2 °F 88% 30.01 in 6.2 mi NNW 3.5 mph - N/A   Mostly Cloudy
6:00 AM 60.8 °F 57.2 °F 88% 30.01 in 6.2 mi WNW 5.8 mph - N/A   Mostly Cloudy
7:00 AM 62.6 °F 57.2 °F 82% 30.04 in 6.2 mi NW 6.9 mph - N/A   Mostly Cloudy
8:00 AM 64 °F 57 °F 71% 30.02 in 12 mi NW 6.9 mph - -   Mostly Cloudy
8:00 AM 64.4 °F 57.2 °F 77% 30.04 in 6.2 mi NW 6.9 mph - N/A   Mostly Cloudy
9:00 AM 66.2 °F 57.2 °F 73% 30.04 in 6.2 mi WNW 5.8 mph - N/A   Mostly Cloudy
10:00 AM 68.0 °F 55.4 °F 64% 30.01 in 6.2 mi SSW 3.5 mph - N/A   Mostly Cloudy
11:00 AM 67 °F 56 °F 60% 30.01 in 12 mi SW 3.5 mph - -   Mostly Cloudy
11:00 AM 68.0 °F 55.4 °F 64% 30.01 in 6.2 mi Variable 3.5 mph - N/A   Mostly Cloudy
12:00 PM 68.0 °F 59.0 °F 73% 30.01 in 6.2 mi South 10.4 mph - N/A   Mostly Cloudy
1:00 PM 66.2 °F 59.0 °F 78% 30.01 in 5.0 mi South 11.5 mph - N/A   Mostly Cloudy
2:00 PM 64 °F 59 °F 80% 30.02 in 5 mi South 9.2 mph - - Rain Light Rain
3:00 PM 66.2 °F 59.0 °F 78% 30.01 in 5.0 mi South 10.4 mph - N/A   Mostly Cloudy
5:00 PM 65 °F 56 °F 66% 29.99 in 5 mi South 8.1 mph - - Rain Light Rain
5:00 PM 64.4 °F 57.2 °F 77% 30.01 in 5.0 mi South 8.1 mph - N/A Rain Light Rain
6:00 PM 62.6 °F 57.2 °F 82% 30.01 in 3.7 mi South 8.1 mph - N/A Rain Light Rain
7:00 PM 60.8 °F 55.4 °F 82% 30.04 in 5.6 mi SW 8.1 mph - N/A Rain Light Rain
8:00 PM 58 °F 55 °F 86% 30.08 in 5 mi NW 5.8 mph - - Rain Light Rain
8:00 PM 59.0 °F 55.4 °F 88% 30.06 in 5.0 mi NW 6.9 mph - N/A Rain Light Rain
9:00 PM 57.2 °F 55.4 °F 94% 30.06 in 6.2 mi NNW 6.9 mph - N/A   Overcast
10:00 PM 59.0 °F 53.6 °F 82% 30.09 in 6.2 mi NNW 4.6 mph - N/A   Overcast
11:00 PM 59.0 °F 55.4 °F 88% 30.09 in 6.2 mi NW 5.8 mph - N/A   Mostly Cloudy